This demonstration page uses our WeatherBlox Daily Observations layout. Learn more.

Left ArrowRight Arrow

39.08367, -84.50855

Hourly Observations for November 26, 2018

Temp ( °F °C ) Dew Point ( °F °C ) Humidity (%) Winds ( mph kmh ) Pressure ( in mb ) Visibility ( mi km ) Precip ( " mm )
12:53 am 00:53 Cloudy with Rain 50 10 47 8.3 89 89 S 13 20 29.46 998 5 8 0.10 2.54
1:53 am 01:53 Cloudy with Light Rain 49 9.4 48 8.9 97 97 S 7 11 29.45 997 10 16 0.01 0.25
2:53 am 02:53 Cloudy 50 10 44 6.7 80 80 SSW 18 30 29.42 996 10 16 0.01 0.25
3:53 am 03:53 Cloudy 49 9.4 40 4.4 71 71 SW 17 28 29.44 997 10 16 0.00 0.00
4:53 am 04:53 Cloudy 47 8.3 40 4.4 77 77 SW 17 28 29.47 998 10 16 0.00 0.00
5:53 am 05:53 Cloudy with Light Rain 44 6.7 39 3.9 83 83 SW 18 30 29.49 999 10 16 0.00 0.03
6:53 am 06:53 Cloudy with Light Rain 39 3.9 33 0.6 79 79 WSW 17 28 29.55 1001 8 13 0.02 0.51
7:53 am 07:53 Cloudy with Light Rain 36 2.2 34 1.1 93 93 SSW 22 35 29.58 1002 7 11 0.00 0.03
8:53 am 08:53 Cloudy with Light Rain 36 2.2 33 0.6 89 89 SSW 15 24 29.60 1002 6 10 0.00 0.03
9:53 am 09:53 Cloudy with Light Rain 36 2.2 34 1.1 93 93 SSW 13 20 29.62 1003 5 8 0.00 0.03
10:53 am 10:53 Cloudy 37 2.8 34 1.1 89 89 WSW 10 17 29.65 1004 10 16 0.00 0.03
11:40 am 11:40 Cloudy with Light Rain 37 2.8 35 1.7 93 93 SW 15 24 29.71 1006 3 4 0.00 0.03
11:53 am 11:53 Cloudy with Light Rain 37 2.8 35 1.7 93 93 SW 15 24 29.67 1005 3 4 0.01 0.25
12:00 pm 12:00 Cloudy with Light Rain 37 2.8 35 1.7 93 93 WSW 15 24 29.71 1006 5 8 0.00 0.03
12:53 pm 12:53 Cloudy with Light Rain 37 2.8 36 2.2 96 96 WSW 13 20 29.70 1006 6 10 0.02 0.51
1:53 pm 13:53 Cloudy 37 2.8 34 1.1 89 89 W 16 26 29.75 1007 10 16 0.00 0.03
2:53 pm 14:53 Cloudy with Light Rain 37 2.8 32 0 82 82 WNW 15 24 29.79 1009 8 13 0.00 0.03
3:53 pm 15:53 Cloudy 36 2.2 31 -0.6 82 82 W 9 15 29.83 1010 10 16 0.00 0.03
4:38 pm 16:38 Cloudy with Light Snow 35 1.7 32 0 89 89 W 18 30 29.88 1012 2 3 0.00 0.03
4:40 pm 16:40 Cloudy with Light Snow 34 1.1 32 0 92 92 W 14 22 29.88 1012 2 3 0.01 0.25
4:53 pm 16:53 Cloudy with Light Snow 34 1.1 32 0 92 92 W 15 24 29.86 1011 1 2 0.01 0.25
5:53 pm 17:53 Cloudy with Light Snow 33 0.6 33 0.6 100 100 W 17 28 29.89 1012 3 4 0.00 0.03
6:53 pm 18:53 Cloudy with Light Snow 32 0 32 0 100 100 W 12 19 29.91 1013 3 5 0.00 0.03
7:53 pm 19:53 Cloudy with Light Snow 32 0 30 -1.1 92 92 W 12 19 29.93 1014 3 5 0.01 0.25
8:53 pm 20:53 Cloudy with Light Snow 32 0 29 -1.7 88 88 W 10 17 29.95 1014 9 14 0.00 0.03
9:53 pm 21:53 Cloudy with Light Wintry Mix 32 0 28 -2.2 85 85 WNW 12 19 29.96 1015 10 16 0.00 0.03
10:53 pm 22:53 Cloudy with Light Snow 31 -0.6 27 -2.8 85 85 W 12 19 29.97 1015 9 14 0.00 0.03
11:53 pm 23:53 Cloudy with Light Wintry Mix 31 -0.6 27 -2.8 85 85 W 10 17 29.97 1015 9 14 0.00 0.03

Powered by AerisWeather